{"data":{"norad_id":54844,"epoch":"2026-05-25T04:05:15.952128Z","epoch_age_seconds":67107,"freshness":"FRESH","line1":"1 54844U 22177AA  26145.17032352  .00000152  00000+0  15057-4 0  9994","line2":"2 54844  43.0072  63.8079 0001834 275.8864  84.1779 15.27578976188620","mean_motion":15.27578976,"eccentricity":0.0001834,"inclination_deg":43.0072,"raan_deg":63.8079,"arg_perigee_deg":275.8864,"mean_anomaly_deg":84.1779,"bstar":1.5057e-5,"rev_number":18862,"period_min":94.266811904591,"perigee_km":481.79382017339,"apogee_km":484.31050435811,"semimajor_km":6861.1891622657,"source":"CELESTRAK","updated_at":"2026-05-25T13:38:17.724364Z"}}